CW6421 Weather Reports


Display with metric or nautical units.
time (UTC)temp
F
wind
direction
speed
MPH
gust
MPH
rain 1hr
in
rain 24hr
in
rain mn
in
humidity
%
barometer
mb
20260503010527 60 160 3.0 7.0 0.00 0.00 0.00 53 1015.0
20260503005526 60 169 3.0 8.0 0.00 0.00 0.00 53 1015.0
20260503003525 60 169 1.0 8.0 0.00 0.00 0.00 53 1015.0
20260503002526 60 158 2.0 7.0 0.00 0.00 0.00 53 1015.0
20260503001529 60 162 5.0 8.0 0.00 0.00 0.00 54 1015.0
20260503000528 60 150 6.0 8.0 0.00 0.00 0.00 54 1015.5
20260502235526 60 160 6.0 7.0 0.00 0.00 0.00 54 1015.5
20260502234531 60 151 2.0 7.0 0.00 0.00 0.00 55 1015.5
20260502233528 60 165 1.0 8.0 0.00 0.00 0.00 55 1015.5
20260502232526 60 169 0.0 7.0 0.00 0.00 0.00 55 1015.5
20260502231527 60 151 5.0 8.0 0.00 0.00 0.00 55 1015.5
20260502230527 60 153 6.0 9.0 0.00 0.00 0.00 55 1015.7
20260502225526 60 158 4.0 8.0 0.00 0.00 0.00 55 1015.7
20260502224530 60 168 5.0 8.0 0.00 0.00 0.00 54 1015.7
20260502223528 61 153 4.0 10.0 0.00 0.00 0.00 54 1016.1
20260502221529 61 169 4.0 10.0 0.00 0.00 0.00 53 1016.1
20260502220528 62 157 7.0 12.0 0.00 0.00 0.00 53 1016.1
20260502215527 62 161 6.0 10.0 0.00 0.00 0.00 52 1016.1
20260502214530 62 155 5.0 12.0 0.00 0.00 0.00 52 1016.1
20260502213526 62 152 8.0 11.0 0.00 0.00 0.00 51 1016.1
20260502212527 63 154 5.0 11.0 0.00 0.00 0.00 51 1016.1
20260502211530 63 166 4.0 10.0 0.00 0.00 0.00 50 1016.1
20260502204528 64 165 5.0 10.0 0.00 0.00 0.00 48 1016.4
20260502203528 64 161 5.0 10.0 0.00 0.00 0.00 48 1016.4
20260502202526 65 168 6.0 10.0 0.00 0.00 0.00 46 1016.4
20260502201529 65 166 5.0 11.0 0.00 0.00 0.00 46 1016.4
20260502200528 66 180 5.0 11.0 0.00 0.00 0.00 45 1016.5
20260502195526 66 170 8.0 11.0 0.00 0.00 0.00 45 1016.5
20260502193528 67 150 6.0 11.0 0.00 0.00 0.00 43 1016.5
20260502191529 69 212 6.0 12.0 0.00 0.00 0.00 41 1016.5
20260502190530 69 219 5.0 15.0 0.00 0.00 0.00 41 1016.4
20260502185528 70 210 7.0 16.0 0.00 0.00 0.00 39 1016.4
20260502184530 71 209 9.0 13.0 0.00 0.00 0.00 39 1016.4
20260502183527 72 201 7.0 16.0 0.00 0.00 0.00 37 1016.4
20260502181530 73 193 10.0 14.0 0.00 0.00 0.00 35 1016.4
20260502180528 74 207 7.0 14.0 0.00 0.00 0.00 35 1016.6
20260502163527 77 203 10.0 18.0 0.00 0.00 0.00 30 1017.3
20260502160529 78 191 10.0 22.0 0.00 0.00 0.00 29 1018.1
20260502151530 80 197 11.0 19.0 0.00 0.00 0.00 28 1018.1
20260502150529 80 194 10.0 18.0 0.00 0.00 0.00 28 1018.9
20260502130529 83 179 11.0 18.0 0.00 0.00 0.00 28 1020.8
20260502122528 84 197 10.0 19.0 0.00 0.00 0.00 29 1020.8
20260502121530 84 192 10.0 20.0 0.00 0.00 0.00 30 1020.8
20260502113526 82 190 11.0 18.0 0.00 0.00 0.00 31 1021.6
20260502112529 81 207 13.0 20.0 0.00 0.00 0.00 33 1021.6
20260502111531 81 175 11.0 20.0 0.00 0.00 0.00 33 1021.6
20260502110529 81 174 12.0 20.0 0.00 0.00 0.00 34 1022.2
20260502105527 80 187 13.0 18.0 0.00 0.00 0.00 34 1022.2
20260502104532 80 195 12.0 19.0 0.00 0.00 0.00 35 1022.2
20260502103528 80 210 12.0 20.0 0.00 0.00 0.00 36 1022.2
20260502091530 71 180 10.0 15.0 0.00 0.00 0.00 44 1022.9
20260502090529 70 193 10.0 12.0 0.00 0.00 0.00 46 1023.4
20260502071531 62 173 3.0 5.0 0.00 0.00 0.00 58 1023.6
20260502070529 61 186 4.0 6.0 0.00 0.00 0.00 60 1023.9
20260502064531 59 183 4.0 5.0 0.00 0.00 0.00 62 1023.9
20260502062528 58 188 3.0 5.0 0.00 0.00 0.00 64 1023.9
20260502061531 56 163 3.0 5.0 0.00 0.00 0.00 68 1023.9
20260502060528 55 155 2.0 6.0 0.00 0.00 0.00 69 1024.2
20260502054530 54 197 3.0 6.0 0.00 0.00 0.00 69 1024.2
20260502053528 54 199 4.0 5.0 0.00 0.00 0.00 70 1024.2
20260502052527 53 186 4.0 6.0 0.00 0.00 0.00 71 1024.2
20260502051530 53 246 3.0 5.0 0.00 0.00 0.00 71 1024.2
20260502050529 52 243 4.0 5.0 0.00 0.00 0.00 72 1024.1
20260502045529 52 247 2.0 4.0 0.00 0.00 0.00 72 1024.1
20260502044529 52 128 2.0 4.0 0.00 0.00 0.00 72 1024.1
20260502043528 52 131 3.0 4.0 0.00 0.00 0.00 72 1024.1
20260502042529 52 130 3.0 4.0 0.00 0.00 0.00 72 1024.1
20260502041531 52 130 1.0 4.0 0.00 0.00 0.00 72 1024.1
20260502040529 52 142 2.0 4.0 0.00 0.00 0.00 72 1024.4
20260502035528 52 138 2.0 4.0 0.00 0.00 0.00 71 1024.4
20260502034530 52 114 4.0 4.0 0.00 0.00 0.00 71 1024.4
20260502033529 52 119 2.0 4.0 0.00 0.00 0.00 71 1024.4
20260502032528 52 119 2.0 4.0 0.00 0.00 0.00 71 1024.4
20260502031529 52 119 1.0 4.0 0.00 0.00 0.00 71 1024.4
20260502030527 53 113 1.0 6.0 0.00 0.00 0.00 70 1024.5
20260502024529 53 144 3.0 5.0 0.00 0.00 0.00 69 1024.5
20260502023527 53 147 2.0 5.0 0.00 0.00 0.00 69 1024.5
20260502022527 53 134 3.0 6.0 0.00 0.00 0.00 69 1024.5
20260502020527 53 111 2.0 5.0 0.00 0.00 0.00 69 1024.9
20260502015529 53 107 3.0 5.0 0.00 0.00 0.00 69 1024.9
20260502014529 53 167 1.0 6.0 0.00 0.00 0.00 68 1024.9
20260502013529 53 163 3.0 5.0 0.00 0.00 0.00 68 1024.9
20260502012528 54 167 2.0 5.0 0.00 0.00 0.00 67 1024.9
20260502011529 54 138 4.0 6.0 0.00 0.00 0.00 67 1024.9